SND1 LGSR-OLBA

Flight info

Callsign SND1
Flight time 1h 29m
Altitude 37000
Route KUPIS UN134 MASES DCT VAXOS UM978 TOSKA M978 TOBAL DCT LCA M31 KUKLA
Aircraft A319/M-SDE3FGHIRWY/LB1

Departure

Time 2026-04-30 03:38
Airport Santorini International Airport (LGSR)

Arrival

Time 2026-04-30 05:07
Airport Beirut Rafic Hariri International Airport (OLBA)
Time Latitude Longitude Altitude Speed Heading
2026-04-30 03:28 36.40349 25.47374 118 ft 0 kts 246°
2026-04-30 03:32 36.40355 25.47389 114 ft 4 kts 300°
2026-04-30 03:32 36.40341 25.47395 115 ft 0 kts 347°
2026-04-30 03:34 36.40346 25.47394 115 ft 2 kts 348°
2026-04-30 03:35 36.40372 25.47408 116 ft 7 kts 29°
2026-04-30 03:35 36.40421 25.47459 118 ft 12 kts 65°
2026-04-30 03:35 36.40494 25.47478 119 ft 14 kts 338°
2026-04-30 03:35 36.40592 25.47433 124 ft 16 kts 340°
2026-04-30 03:36 36.40704 25.47380 126 ft 18 kts 339°
2026-04-30 03:36 36.40824 25.47324 134 ft 19 kts 339°
2026-04-30 03:36 36.40954 25.47263 134 ft 16 kts 339°
2026-04-30 03:36 36.41021 25.47337 134 ft 13 kts 73°
2026-04-30 03:37 36.41010 25.47404 134 ft 8 kts 152°
2026-04-30 03:37 36.41000 25.47408 134 ft 0 kts 160°
2026-04-30 03:37 36.40914 25.47448 134 ft 46 kts 159°
2026-04-30 03:38 36.40597 25.47596 122 ft 99 kts 159°
2026-04-30 03:38 36.39739 25.47999 103 ft 161 kts 159°
2026-04-30 03:38 36.38292 25.48747 855 ft 169 kts 152°
2026-04-30 03:38 36.37597 25.49190 1312 ft 171 kts 151°
2026-04-30 03:39 36.36547 25.49916 1895 ft 179 kts 151°
2026-04-30 03:39 36.35393 25.50745 2224 ft 203 kts 150°
2026-04-30 03:39 36.34106 25.51685 2568 ft 226 kts 149°
2026-04-30 03:39 36.32733 25.52686 3347 ft 231 kts 149°
2026-04-30 03:40 36.31343 25.53691 4219 ft 232 kts 150°
2026-04-30 03:40 36.29945 25.54694 5112 ft 232 kts 149°
2026-04-30 03:40 36.28593 25.55805 5936 ft 235 kts 134°
2026-04-30 03:40 36.27744 25.57520 6729 ft 236 kts 104°
2026-04-30 03:41 36.27672 25.59528 7497 ft 236 kts 75°
2026-04-30 03:41 36.28198 25.61470 8278 ft 241 kts 69°
2026-04-30 03:41 36.28749 25.63492 8757 ft 260 kts 70°
2026-04-30 03:41 36.29342 25.65686 9339 ft 277 kts 70°
2026-04-30 03:42 36.29969 25.68010 9950 ft 291 kts 70°
2026-04-30 03:42 36.30500 25.70499 10624 ft 301 kts 84°
2026-04-30 03:42 36.30248 25.73171 10913 ft 326 kts 108°
2026-04-30 03:42 36.29253 25.75718 11468 ft 338 kts 120°
2026-04-30 03:43 36.28122 25.78352 12202 ft 344 kts 116°
2026-04-30 03:43 36.27086 25.81010 12926 ft 350 kts 115°
2026-04-30 03:43 36.26061 25.83781 13652 ft 356 kts 114°
2026-04-30 03:43 36.25036 25.86593 14314 ft 361 kts 114°
2026-04-30 03:44 36.23989 25.89454 14992 ft 365 kts 114°
2026-04-30 03:44 36.22927 25.92333 15679 ft 369 kts 114°
2026-04-30 03:44 36.21850 25.95224 16370 ft 372 kts 114°
2026-04-30 03:44 36.20752 25.98136 17052 ft 375 kts 115°
2026-04-30 03:45 36.19636 26.01074 17746 ft 378 kts 115°
2026-04-30 03:45 36.18512 26.04029 18410 ft 381 kts 115°
2026-04-30 03:45 36.17378 26.07015 18976 ft 385 kts 115°
2026-04-30 03:45 36.16234 26.10027 19554 ft 388 kts 115°
2026-04-30 03:46 36.15077 26.13067 20136 ft 392 kts 115°
2026-04-30 03:46 36.13908 26.16135 20704 ft 396 kts 115°
2026-04-30 03:46 36.12730 26.19228 21266 ft 400 kts 115°
2026-04-30 03:46 36.11541 26.22349 21822 ft 403 kts 115°
2026-04-30 03:47 36.10340 26.25501 22380 ft 407 kts 115°
2026-04-30 03:47 36.09127 26.28683 22935 ft 411 kts 115°
2026-04-30 03:47 36.07901 26.31890 23478 ft 415 kts 115°
2026-04-30 03:47 36.06661 26.35129 23946 ft 418 kts 115°
2026-04-30 03:48 36.05415 26.38383 24395 ft 421 kts 115°
2026-04-30 03:48 36.04150 26.41676 24832 ft 424 kts 115°
2026-04-30 03:48 36.02894 26.44939 25262 ft 427 kts 115°
2026-04-30 03:48 36.01614 26.48263 25708 ft 430 kts 115°
2026-04-30 03:49 36.00322 26.51617 26127 ft 433 kts 115°
2026-04-30 03:49 35.99025 26.54984 26541 ft 435 kts 115°
2026-04-30 03:49 35.97724 26.58367 26964 ft 438 kts 115°
2026-04-30 03:49 35.96411 26.61779 27371 ft 441 kts 115°
2026-04-30 03:50 35.95091 26.65200 27776 ft 443 kts 115°
2026-04-30 03:50 35.93756 26.68656 28182 ft 446 kts 115°
2026-04-30 03:50 35.92415 26.72120 28588 ft 449 kts 115°
2026-04-30 03:50 35.91065 26.75602 28983 ft 452 kts 115°
2026-04-30 03:51 35.89704 26.79105 29373 ft 454 kts 115°
2026-04-30 03:51 35.88335 26.82628 29765 ft 457 kts 115°
2026-04-30 03:51 35.86955 26.86176 30129 ft 460 kts 115°
2026-04-30 03:51 35.85565 26.89738 30437 ft 462 kts 115°
2026-04-30 03:52 35.84166 26.93326 30728 ft 465 kts 115°
2026-04-30 03:52 35.82756 26.96928 31009 ft 468 kts 116°
2026-04-30 03:52 35.81364 27.00571 31286 ft 471 kts 114°
2026-04-30 03:52 35.80064 27.04234 31555 ft 474 kts 112°
2026-04-30 03:53 35.78787 27.08047 31876 ft 476 kts 111°
2026-04-30 03:53 35.77557 27.11826 32255 ft 476 kts 111°
2026-04-30 03:53 35.76324 27.15613 32625 ft 476 kts 111°
2026-04-30 03:53 35.75088 27.19350 32982 ft 477 kts 112°
2026-04-30 03:54 35.73811 27.23123 33338 ft 478 kts 112°
2026-04-30 03:54 35.72515 27.26891 33697 ft 479 kts 112°
2026-04-30 03:54 35.71207 27.30667 34058 ft 479 kts 112°
2026-04-30 03:54 35.69904 27.34438 34371 ft 480 kts 112°
2026-04-30 03:55 35.68596 27.38220 34667 ft 480 kts 112°
2026-04-30 03:55 35.67291 27.42002 34950 ft 481 kts 112°
2026-04-30 03:55 35.65981 27.45799 35237 ft 481 kts 112°
2026-04-30 03:55 35.64676 27.49591 35520 ft 482 kts 112°
2026-04-30 03:56 35.63368 27.53386 35795 ft 482 kts 112°
2026-04-30 03:56 35.62057 27.57182 36067 ft 483 kts 112°
2026-04-30 03:56 35.60740 27.60987 36328 ft 483 kts 113°
2026-04-30 03:56 35.59422 27.64783 36580 ft 484 kts 113°
2026-04-30 03:57 35.58100 27.68591 36826 ft 484 kts 112°
2026-04-30 03:57 35.56781 27.72395 37009 ft 485 kts 113°
2026-04-30 03:57 35.54144 27.79978 37049 ft 481 kts 113°
2026-04-30 03:58 35.51512 27.87525 37042 ft 480 kts 113°
2026-04-30 03:58 35.48895 27.95012 37047 ft 480 kts 113°
2026-04-30 03:59 35.46251 28.02541 37050 ft 480 kts 113°
2026-04-30 03:59 35.43607 28.10059 37037 ft 480 kts 113°
2026-04-30 04:00 35.40962 28.17575 37043 ft 480 kts 113°
2026-04-30 04:00 35.38311 28.25078 37044 ft 479 kts 113°
2026-04-30 04:01 35.35651 28.32579 37040 ft 480 kts 112°
2026-04-30 04:01 35.32994 28.40056 37034 ft 482 kts 112°
2026-04-30 04:02 35.30294 28.47633 37033 ft 482 kts 112°
2026-04-30 04:02 35.27627 28.55116 37039 ft 483 kts 112°
2026-04-30 04:03 35.24941 28.62650 37044 ft 483 kts 112°
2026-04-30 04:03 35.22238 28.70192 37048 ft 483 kts 112°
2026-04-30 04:04 35.19531 28.77715 37052 ft 484 kts 112°
2026-04-30 04:04 35.16818 28.85253 37060 ft 484 kts 112°
2026-04-30 04:05 35.14103 28.92768 37068 ft 484 kts 112°
2026-04-30 04:05 35.11377 29.00289 37060 ft 483 kts 112°
2026-04-30 04:06 35.08654 29.07788 37058 ft 483 kts 112°
2026-04-30 04:06 35.05921 29.15287 37056 ft 483 kts 112°
2026-04-30 04:07 35.03205 29.22737 37068 ft 483 kts 112°
2026-04-30 04:08 34.99594 29.34158 37057 ft 480 kts 100°
2026-04-30 04:08 34.98976 29.42215 37073 ft 476 kts 91°
2026-04-30 04:09 34.98667 29.50267 37074 ft 475 kts 91°
2026-04-30 04:09 34.98356 29.58325 37072 ft 474 kts 91°
2026-04-30 04:10 34.98046 29.66354 37073 ft 474 kts 91°
2026-04-30 04:10 34.97721 29.74380 37072 ft 473 kts 91°
2026-04-30 04:11 34.97399 29.82383 37071 ft 473 kts 91°
2026-04-30 04:11 34.97068 29.90345 37072 ft 472 kts 91°
2026-04-30 04:12 34.96724 29.98350 37072 ft 472 kts 91°
2026-04-30 04:12 34.96482 30.06343 37075 ft 471 kts 89°
2026-04-30 04:13 34.96442 30.14319 37077 ft 470 kts 88°
2026-04-30 04:13 34.96413 30.22297 37074 ft 470 kts 89°
2026-04-30 04:14 34.96322 30.30269 37071 ft 470 kts 89°
2026-04-30 04:14 34.96197 30.38239 37073 ft 470 kts 89°
2026-04-30 04:15 34.96072 30.46204 37074 ft 470 kts 89°
2026-04-30 04:15 34.95955 30.54120 37071 ft 469 kts 89°
2026-04-30 04:16 34.95836 30.62118 37071 ft 469 kts 89°
2026-04-30 04:16 34.95702 30.70020 37072 ft 469 kts 90°
2026-04-30 04:17 34.95563 30.77968 37076 ft 468 kts 89°
2026-04-30 04:17 34.95428 30.85912 37062 ft 468 kts 90°
2026-04-30 04:18 34.95289 30.93847 37070 ft 468 kts 90°
2026-04-30 04:18 34.95130 31.01779 37071 ft 468 kts 90°
2026-04-30 04:19 34.94973 31.09699 37074 ft 468 kts 90°
2026-04-30 04:19 34.94819 31.17619 37076 ft 467 kts 90°
2026-04-30 04:20 34.94663 31.25544 37072 ft 467 kts 90°
2026-04-30 04:20 34.94524 31.32119 37074 ft 467 kts 90°
2026-04-30 04:21 34.94347 31.40037 37075 ft 467 kts 90°
2026-04-30 04:21 34.94136 31.49228 37073 ft 467 kts 90°
2026-04-30 04:22 34.93980 31.55860 37070 ft 467 kts 90°
2026-04-30 04:22 34.93756 31.65048 37071 ft 467 kts 90°
2026-04-30 04:23 34.93591 31.71620 37071 ft 467 kts 90°
2026-04-30 04:23 34.93395 31.79525 37072 ft 467 kts 90°
2026-04-30 04:24 34.93194 31.87445 37074 ft 467 kts 90°
2026-04-30 04:24 34.92986 31.95358 37071 ft 467 kts 90°
2026-04-30 04:25 34.92767 32.03272 37069 ft 467 kts 90°
2026-04-30 04:25 34.92542 32.11176 37062 ft 466 kts 91°
2026-04-30 04:26 34.92316 32.19077 37061 ft 466 kts 91°
2026-04-30 04:26 34.92086 32.26968 37058 ft 466 kts 91°
2026-04-30 04:27 34.91851 32.34858 37061 ft 466 kts 91°
2026-04-30 04:27 34.91610 32.42748 37059 ft 466 kts 91°
2026-04-30 04:28 34.91366 32.50630 37058 ft 466 kts 91°
2026-04-30 04:28 34.91108 32.58520 37057 ft 466 kts 91°
2026-04-30 04:29 34.90848 32.66410 37058 ft 466 kts 91°
2026-04-30 04:29 34.90586 32.74285 37054 ft 466 kts 91°
2026-04-30 04:30 34.90318 32.82174 37055 ft 466 kts 91°
2026-04-30 04:30 34.90039 32.90057 37051 ft 466 kts 91°
2026-04-30 04:31 34.89757 32.97947 37054 ft 466 kts 91°
2026-04-30 04:31 34.89471 33.05833 37057 ft 466 kts 91°
2026-04-30 04:32 34.89184 33.13718 37056 ft 466 kts 91°
2026-04-30 04:32 34.88895 33.21562 37057 ft 466 kts 91°
2026-04-30 04:33 34.88606 33.29440 37061 ft 466 kts 91°
2026-04-30 04:33 34.88305 33.37336 37009 ft 467 kts 91°
2026-04-30 04:33 34.88150 33.41293 36747 ft 466 kts 92°
2026-04-30 04:34 34.87992 33.45230 36492 ft 464 kts 91°
2026-04-30 04:34 34.87835 33.49145 36001 ft 461 kts 92°
2026-04-30 04:34 34.87680 33.53034 35468 ft 459 kts 92°
2026-04-30 04:34 34.87510 33.56909 34932 ft 457 kts 94°
2026-04-30 04:35 34.86974 33.60715 34400 ft 456 kts 104°
2026-04-30 04:35 34.85933 33.64356 33861 ft 453 kts 115°
2026-04-30 04:35 34.84435 33.67706 33342 ft 449 kts 124°
2026-04-30 04:35 34.82698 33.70841 32846 ft 444 kts 125°
2026-04-30 04:36 34.81004 33.73897 32363 ft 440 kts 125°
2026-04-30 04:36 34.79298 33.76977 31877 ft 436 kts 124°
2026-04-30 04:36 34.77612 33.80021 31400 ft 432 kts 125°
2026-04-30 04:36 34.75938 33.83038 30940 ft 428 kts 125°
2026-04-30 04:37 34.74256 33.86065 30474 ft 424 kts 125°
2026-04-30 04:37 34.72612 33.89021 30002 ft 420 kts 125°
2026-04-30 04:37 34.70978 33.91943 29545 ft 415 kts 125°
2026-04-30 04:37 34.69379 33.94780 29124 ft 410 kts 125°
2026-04-30 04:38 34.67751 33.97656 28708 ft 405 kts 125°
2026-04-30 04:38 34.66160 34.00456 28294 ft 401 kts 125°
2026-04-30 04:38 34.64585 34.03224 27884 ft 397 kts 125°
2026-04-30 04:38 34.63023 34.05975 27474 ft 394 kts 125°
2026-04-30 04:39 34.61479 34.08705 27059 ft 391 kts 125°
2026-04-30 04:39 34.59951 34.11421 26638 ft 388 kts 125°
2026-04-30 04:39 34.58434 34.14114 26229 ft 385 kts 125°
2026-04-30 04:39 34.56929 34.16790 25799 ft 383 kts 124°
2026-04-30 04:40 34.55435 34.19448 25374 ft 380 kts 124°
2026-04-30 04:40 34.53947 34.22087 24930 ft 378 kts 124°
2026-04-30 04:40 34.52461 34.24718 24488 ft 376 kts 124°
2026-04-30 04:40 34.50987 34.27325 24044 ft 374 kts 124°
2026-04-30 04:41 34.49512 34.29930 23586 ft 373 kts 124°
2026-04-30 04:41 34.48045 34.32519 23094 ft 370 kts 124°
2026-04-30 04:41 34.46610 34.35047 22666 ft 367 kts 124°
2026-04-30 04:41 34.45173 34.37578 22234 ft 364 kts 124°
2026-04-30 04:42 34.43742 34.40104 21809 ft 361 kts 124°
2026-04-30 04:42 34.42339 34.42608 21380 ft 358 kts 124°
2026-04-30 04:42 34.40952 34.45099 20976 ft 356 kts 124°
2026-04-30 04:42 34.39575 34.47577 20561 ft 354 kts 124°
2026-04-30 04:43 34.38206 34.50041 20157 ft 352 kts 124°
2026-04-30 04:43 34.36840 34.52491 19748 ft 350 kts 124°
2026-04-30 04:43 34.35478 34.54925 19344 ft 348 kts 124°
2026-04-30 04:43 34.34122 34.57343 18944 ft 347 kts 124°
2026-04-30 04:44 34.32770 34.59753 18543 ft 346 kts 124°
2026-04-30 04:44 34.31417 34.62161 18125 ft 345 kts 124°
2026-04-30 04:44 34.30071 34.64557 17718 ft 343 kts 124°
2026-04-30 04:44 34.28734 34.66934 17327 ft 341 kts 124°
2026-04-30 04:45 34.27405 34.69296 16932 ft 338 kts 124°
2026-04-30 04:45 34.26087 34.71640 16559 ft 336 kts 124°
2026-04-30 04:45 34.24797 34.73992 16190 ft 338 kts 122°
2026-04-30 04:45 34.23603 34.76610 16149 ft 367 kts 115°
2026-04-30 04:46 34.22687 34.79414 16639 ft 346 kts 106°
2026-04-30 04:46 34.22047 34.82136 16738 ft 328 kts 105°
2026-04-30 04:46 34.21447 34.84776 16395 ft 326 kts 105°
2026-04-30 04:46 34.20870 34.87443 15933 ft 329 kts 104°
2026-04-30 04:47 34.20334 34.90122 15599 ft 327 kts 103°
2026-04-30 04:47 34.19742 34.92726 15281 ft 325 kts 105°
2026-04-30 04:47 34.19171 34.95361 14930 ft 324 kts 104°
2026-04-30 04:47 34.18634 34.98029 14589 ft 323 kts 105°
2026-04-30 04:48 34.18014 35.00593 14255 ft 322 kts 107°
2026-04-30 04:48 34.17336 35.03165 13914 ft 321 kts 108°
2026-04-30 04:48 34.16651 35.05725 13543 ft 319 kts 108°
2026-04-30 04:48 34.15976 35.08276 13141 ft 319 kts 108°
2026-04-30 04:49 34.15301 35.10843 12656 ft 321 kts 108°
2026-04-30 04:49 34.14334 35.13255 12277 ft 319 kts 122°
2026-04-30 04:49 34.13318 35.15584 12103 ft 310 kts 112°
2026-04-30 04:49 34.12612 35.18034 11793 ft 307 kts 106°
2026-04-30 04:50 34.12052 35.20508 11453 ft 305 kts 104°
2026-04-30 04:50 34.11526 35.22972 11232 ft 299 kts 104°
2026-04-30 04:50 34.10993 35.25355 11105 ft 289 kts 105°
2026-04-30 04:50 34.10444 35.27647 10985 ft 280 kts 106°
2026-04-30 04:51 34.09881 35.29867 10838 ft 272 kts 107°
2026-04-30 04:51 34.09316 35.32026 10610 ft 268 kts 107°
2026-04-30 04:51 34.08749 35.34166 10336 ft 266 kts 107°
2026-04-30 04:51 34.08193 35.36258 10213 ft 258 kts 107°
2026-04-30 04:52 34.07655 35.38282 10089 ft 249 kts 107°
2026-04-30 04:52 34.07132 35.40252 9851 ft 245 kts 107°
2026-04-30 04:52 34.06561 35.42177 9525 ft 243 kts 119°
2026-04-30 04:52 34.05436 35.43611 9197 ft 239 kts 152°
2026-04-30 04:53 34.03878 35.44189 8849 ft 234 kts 179°
2026-04-30 04:53 34.02280 35.43947 8513 ft 230 kts 202°
2026-04-30 04:53 34.00906 35.43014 8180 ft 226 kts 224°
2026-04-30 04:53 33.99922 35.41571 7858 ft 222 kts 244°
2026-04-30 04:54 33.99438 35.39828 7529 ft 219 kts 264°
2026-04-30 04:54 33.99501 35.38010 7211 ft 217 kts 284°
2026-04-30 04:54 34.00089 35.36348 6913 ft 216 kts 304°
2026-04-30 04:54 34.01119 35.35046 6608 ft 216 kts 324°
2026-04-30 04:55 34.02459 35.34255 6298 ft 216 kts 341°
2026-04-30 04:55 34.03920 35.33781 5968 ft 217 kts 345°
2026-04-30 04:55 34.05392 35.33390 5659 ft 217 kts 346°
2026-04-30 04:55 34.06869 35.33017 5349 ft 216 kts 347°
2026-04-30 04:56 34.08343 35.32643 5038 ft 217 kts 347°
2026-04-30 04:56 34.09818 35.32261 4746 ft 216 kts 346°
2026-04-30 04:56 34.11281 35.31878 4422 ft 216 kts 346°
2026-04-30 04:56 34.12746 35.31490 4129 ft 215 kts 346°
2026-04-30 04:57 34.14208 35.31102 3800 ft 215 kts 346°
2026-04-30 04:57 34.15674 35.30711 3488 ft 216 kts 346°
2026-04-30 04:57 34.17141 35.30316 3172 ft 216 kts 346°
2026-04-30 04:57 34.18584 35.29958 2996 ft 215 kts 353°
2026-04-30 04:58 34.20080 35.30109 3003 ft 220 kts 17°
2026-04-30 04:58 34.21416 35.31036 3003 ft 221 kts 45°
2026-04-30 04:58 34.22257 35.32530 3007 ft 219 kts 71°
2026-04-30 04:58 34.22478 35.34318 3001 ft 216 kts 98°
2026-04-30 04:59 34.22049 35.36030 3003 ft 212 kts 123°
2026-04-30 04:59 34.21089 35.37343 3004 ft 209 kts 147°
2026-04-30 04:59 34.19787 35.38066 3008 ft 207 kts 166°
2026-04-30 04:59 34.18392 35.38490 3005 ft 207 kts 169°
2026-04-30 05:00 34.16983 35.38860 3012 ft 207 kts 169°
2026-04-30 05:00 34.15576 35.39221 2999 ft 206 kts 169°
2026-04-30 05:00 34.14168 35.39584 3004 ft 207 kts 169°
2026-04-30 05:00 34.12761 35.39951 3004 ft 207 kts 168°
2026-04-30 05:01 34.11355 35.40321 3000 ft 207 kts 168°
2026-04-30 05:01 34.09948 35.40693 2997 ft 207 kts 168°
2026-04-30 05:01 34.08539 35.41068 3007 ft 207 kts 168°
2026-04-30 05:01 34.07603 35.41317 3010 ft 207 kts 168°
2026-04-30 05:02 34.05724 35.41823 3013 ft 207 kts 167°
2026-04-30 05:02 34.04795 35.42081 3005 ft 207 kts 167°
2026-04-30 05:02 34.03389 35.42475 3007 ft 207 kts 167°
2026-04-30 05:02 34.01986 35.42874 3004 ft 204 kts 167°
2026-04-30 05:03 34.00219 35.43373 3000 ft 192 kts 167°
2026-04-30 05:03 33.99343 35.43618 3000 ft 191 kts 167°
2026-04-30 05:03 33.97633 35.44095 2826 ft 188 kts 167°
2026-04-30 05:03 33.96782 35.44333 2679 ft 185 kts 167°
2026-04-30 05:04 33.95539 35.44679 2425 ft 181 kts 168°
2026-04-30 05:04 33.94325 35.45018 2186 ft 177 kts 168°
2026-04-30 05:04 33.93141 35.45348 1957 ft 172 kts 168°
2026-04-30 05:04 33.92009 35.45663 1748 ft 158 kts 168°
2026-04-30 05:05 33.90990 35.45948 1518 ft 145 kts 168°
2026-04-30 05:05 33.90022 35.46217 1320 ft 142 kts 168°
2026-04-30 05:05 33.89065 35.46483 1111 ft 141 kts 167°
2026-04-30 05:06 33.87240 35.46990 732 ft 132 kts 167°
2026-04-30 05:06 33.86346 35.47234 573 ft 131 kts 167°
2026-04-30 05:06 33.85463 35.47487 421 ft 130 kts 167°
2026-04-30 05:06 33.84583 35.47732 252 ft 128 kts 168°
2026-04-30 05:07 33.83717 35.47970 114 ft 127 kts 168°
2026-04-30 05:07 33.82915 35.48192 92 ft 104 kts 167°
2026-04-30 05:07 33.82283 35.48367 99 ft 82 kts 166°
2026-04-30 05:07 33.81925 35.48529 110 ft 41 kts 136°
2026-04-30 05:08 33.81771 35.48717 116 ft 26 kts 122°
2026-04-30 05:08 33.81717 35.48916 122 ft 23 kts 105°
2026-04-30 05:08 33.81728 35.49024 118 ft 14 kts 38°
2026-04-30 05:08 33.81810 35.49094 117 ft 15 kts 35°
2026-04-30 05:09 33.81899 35.49168 118 ft 16 kts 35°
2026-04-30 05:09 33.81996 35.49249 115 ft 18 kts 34°
2026-04-30 05:09 33.82098 35.49338 119 ft 19 kts 35°
2026-04-30 05:09 33.82207 35.49429 112 ft 20 kts 35°
2026-04-30 05:10 33.82315 35.49519 111 ft 13 kts 34°
2026-04-30 05:10 33.82365 35.49498 117 ft 7 kts 296°
2026-04-30 05:10 33.82363 35.49464 120 ft 3 kts 251°
2026-04-30 05:10 33.82366 35.49447 123 ft 2 kts 295°
2026-04-30 05:11 33.82368 35.49445 123 ft 0 kts 304°